星链-36876(STARLINK-36876)

导读

STARLINK-36876是美国SpaceX公司星链计划中的一颗卫星,于2026年2月21日发射升空。作为星链星座组网的组成部分,它主要用于为全球范围内用户提供高速互联网接入服务,尤其能覆盖偏远地区,助力全球互联网普及,推动星链低轨卫星互联网系统的构建与完善。

Basic Information
目录编号:
67902
目录名称:
STARLINK-36876
国际标识:
2026-035Z
轨道中心:
EARTH
卫星名称:
星链-36876
卫星全名:
星链-36876(STARLINK-36876)
卫星状态:
在轨 (已飞行195 天)
发射日期:
2026-02-21 UTC
国别 :
美国 (US)
星等 :
--
Orbit Information
数据来源 国际轨道数据
星历时间: 2026-09-03T09:30:50+0800
1天前
查看轨道信息
半长轴: 6843.655km
偏心率: 0.0001508
轨道倾角: 97.284°
近地点辐角 92.914°
升交点赤经 178.204°
平近点角 267.227°
近地点: 464.485km
远地点: 466.551km
周期: 93.906分钟
每日圈数: 15.334536
Detailed Information
固有亮度:
5
最大亮度:
2.5
卫星平台:
Starlink V1.0
覆盖范围:
全球
运营商:
太空探索技术公司
运营商所在国:
美国
制造商(研发单位):
太空探索技术公司
制造商所在国:
美国
使用方式:
暂无
Satellite Introduction
Starlink 计划是 SpaceX 推出的全球卫星互联网项目,通过发射低轨道卫星,为全球尤其是偏远地区提供高速、低延迟的互联网服务。自 2019 年起,Starlink 已部署数千颗卫星,旨在缩小全球数字鸿沟,推动互联网普及。该项目还为军事、航空等行业提供通信支持,带来广泛经济效益。
2D Orbit Map
3D Orbit Map
Orbit Altitude Analysis Chart
Orbit Inclination Analysis Chart
Orbit Comprehensive Analysis Chart
View Comprehensive Chart
Conjunction Data List
Event ID Objects TCA Miss Dist (km) Collision Risk Probability Collision Risk Index (CRI) Action
CDM_260904-233305-740806-790221
2026-09-04T
23:33:19+0000
2.043 km
极远距离
2.564309E-6 低风险 0.43
CDM_260828-132305-227406-790221
2026-08-28T
13:23:42+0000
2.726 km
极远距离
1.432451E-6 低风险 0.38
CDM_260905-044901-957306-790221
2026-09-05T
04:49:23+0000
2.759 km
极远距离
1.388807E-6 低风险 0.38